Regional Weather Roundup
Issued by NWS

Home | Current Version | Previous Version | Text Only | Print | Product List | Glossary Off
Versions: 1 2 3 4 5 6 7 8 9 10 11 12 13 14 15 16 17 18 19 20 21 22 23 24 25 26 27 28 29 30 31 32 33 34 35 36 37 38 39 40 41 42 43 44 45 46 47 48 49 50

000
ASUS43 KDMX 210107
RWRIA

WEATHER ROUNDUP FOR IOWA
NATIONAL WEATHER SERVICE DES MOINES IA
800 PM CDT MON OCT 20 2014

NOTE: "FAIR" INDICATES FEW OR NO CLOUDS BELOW 12,000 FEET WITH NO
SIGNIFICANT WEATHER AND/OR OBSTRUCTIONS TO VISIBILITY.

* - THESE STATIONS ARE NOT NWS STATIONS...THUS NOT UNDER NWS
QUALITY CONTROL.  THEY ALSO DO NOT REPORT WEATHER SUCH
AS PRECIPITATION OR FOG.

IAZ001>003-012>014-020>022-031>034-043>046-210200-
   NORTHWEST IOWA

CITY           SKY/WX    TMP DP  RH WIND       PRES   REMARKS
CARROLL *      CLEAR     48  41  76 W6        30.04R
CHEROKEE *     CLEAR     50  41  71 CALM      30.04S
DENISON *      CLEAR     50  41  71 SE5       30.03S
LE MARS *      CLEAR     48  41  76 CALM      30.04S
ORANGE CITY *  CLEAR     61  37  41 CALM      30.04S
SHELDON *      CLEAR     50  37  62 CALM      30.03S
SIOUX CITY     CLEAR     50  40  68 CALM      30.04S
SPENCER        CLEAR     48  37  65 CALM      30.04R
STORM LAKE *   CLEAR     57  37  47 NW6       30.05S
$$

IAZ055>058-069>071-079>083-090>094-210200-
   SOUTHWEST IOWA

CITY           SKY/WX    TMP DP  RH WIND       PRES   REMARKS
ATLANTIC *     CLEAR     52  41  66 CALM      30.05R
AUDUBON *      CLEAR     46  37  71 CALM      30.06R
CLARINDA *     CLEAR     48  45  87 CALM      30.07R
COUNCIL BLFS * CLEAR     61  41  48 NE3       30.04S
CRESTON *      CLEAR     59  41  51 NW5       30.05R
HARLAN  *      CLEAR     50  41  71 CALM      30.09R
LAMONI         CLEAR     54  43  66 W6        30.04R
RED OAK *      PTCLDY    52  43  71 CALM      30.05S
SHENANDOAH *     N/A     57  43  58 CALM      30.06S
$$

IAZ047>049-059>061-072>074-084-210200-
   CENTRAL IOWA

CITY           SKY/WX    TMP DP  RH WIND       PRES   REMARKS
AMES           CLEAR     51  40  65 NW6       30.02R
ANKENY *       CLEAR     55  43  62 CALM      30.02S
CHARITON *     CLEAR     57  43  58 W7        30.03R
DES MOINES     CLEAR     61  39  44 NW3       30.03R
GRINNELL*      CLEAR     55  41  58 NW3       30.01S
KNOXVILLE *    CLEAR     61  41  48 NW5       30.01R
MARSHALLTOWN   CLEAR     55  40  56 NW7       30.00S
PELLA *        CLEAR     55  41  58 NW6       30.02S
PERRY *          N/A     54  41  62 NW5       30.03S
$$

IAZ004>006-015-016-023>025-035-036-210200-
   NORTH CENTRAL IOWA

CITY           SKY/WX    TMP DP  RH WIND       PRES   REMARKS
ALGONA *       CLEAR     57  39  51 NW6       30.04R
CLARION *      CLEAR     52  39  62 NW7       30.03R
ESTHERVILLE    CLEAR     48  36  63 NW5       30.03S
FORT DODGE *   CLEAR     48  37  66 CALM      30.03F
MASON CITY     CLEAR     48  40  73 NW6       30.03S
FOREST CITY *  CLEAR     52  41  66 W6        30.03R
IOWA FALLS *     N/A     48  39  71 W6        30.03R
$$

IAZ007>011-017>019-026>030-037>042-050>054-066-210200-
   NORTHEAST IOWA

CITY           SKY/WX    TMP DP  RH WIND       PRES   REMARKS
CEDAR RAPIDS   CLEAR     53  42  66 NW6       29.99R
CHARLES CITY * CLEAR     52  41  66 N7        30.02R
CLINTON *      CLEAR     52  41  66 N6        30.00S
DECORAH *      PTCLDY    54  43  66 N6        30.00S
DUBUQUE        CLEAR     51  42  71 N7        30.00R
MONTICELLO *   CLEAR     52  43  71 CALM      29.99R
OELWEIN *      CLEAR     54  41  62 N7        30.01R
WATERLOO       CLEAR     52  41  66 CALM      30.00R
$$

IAZ064-065-067-068-078-210200-
   EAST CENTRAL IOWA

CITY           SKY/WX    TMP DP  RH WIND       PRES   REMARKS
DAVENPORT      CLEAR     53  40  61 N6        29.98R
IOWA CITY      CLEAR     52  43  71 NW5       30.00R
MT. PLEASANT * CLEAR     55  43  62 W5        30.00R
MUSCATINE *    CLEAR     54  41  62 N5        29.99R
QUAD CITIES    CLEAR     52  42  69 CALM      29.97R
$$

IAZ062-063-075>077-085>089-095>099-210200-
   SOUTHEAST IOWA

CITY           SKY/WX    TMP DP  RH WIND       PRES   REMARKS
BURLINGTON     CLEAR     52  46  80 CALM      29.99R
FAIRFIELD *    CLEAR     57  41  54 NW7       30.00S
FORT MADISON * CLEAR     55  46  71 W6        30.00S
KEOKUK *       CLEAR     55  45  67 W6        29.99S
OSKALOOSA *      N/A     52  41  66 NW5       30.01S
CENTERVILLE *  CLEAR     46  41  81 W3        30.03S
OTTUMWA        CLEAR     54  42  64 W6        30.00S
WASHINGTON *   CLEAR     57  43  58 NW7       30.00R
$$

ABBREVIATIONS USED IN REMARKS
   TC - TEMPERATURES IN CELSIUS
  WCI - WIND CHILL INDEX
   HX - HEAT INDEX
  VSB - VISIBILITY
$$




USA.gov is the U.S. government's official web portal to all federal, state and local government web resources and services.